TIANLIAN 1-05 (49011 NORAD) Tracking and Keplerian Element Data

This shows tracking and keplerian element data for the satellite.

Feedback or suggestion? Click here.




ElementValue
Catalog49011
NameTIANLIAN 1-05
Epoch Orbit77
Epoch Day268.68896338
Epoch Year2021
RAAN286.0729
Inclination2.8305
Eccentricity0.0003187
Argument of Perigee321.3014
Mean Anonmoly15.994
Mean Motion1.00274247
Decay Rate6.7E-07
L11 49011U 21063A 21268.68896338 .00000067 00000-0 00000-0 0 9990
L22 49011 2.8305 286.0729 0003187 321.3014 15.9940 1.00274247 771

Live tracking and technical data element details for TIANLIAN 1-05 (NORAD 49011). TIANLIAN 1-05 can be tracked NOW for your location showing map with azimuth and elevation plus other details from your city location.

Track the satellite on the map from your city or location and see movement details for azimuth, elevation, latitude, longitude, range, height, and movement on the map or in text.







IsCatalogInMostPopularTable: catalog: 49011, numindb: 17
Update: records affected: 1



GetName: 49011 TIANLIAN 1-05

Hit Count: updated at: Sun, 26 Sep 2021 16:09:24 GMT